Meteo Giornale » Osservazioni meteo Stati Uniti (USA) » Berlin

ore: 00:52 - Osservazioni Meteo Berlin
Lat. 44° 34' N Lon. 71° 10' W Alt. 353 metri s.l.m.

nebbia

9 °C

Nebbia

Temp. 24 Ore

7 °C

23 °C

Nord

0 Km/h

Dew point 9 °C

Umidità 100 %

Visibilità  2 Km

Il sole sorge alle ore 06:07

Il sole tramonta alle ore 19:21

Data e Ora Cielo e Fenomeni T °C DP °C Um. % Pres. hPa Vis. km Vento km/h
Oggi h: 00:52 nebbia Nebbia 9 9 100 1019 2 N 0
Ieri h: 23:52 nebbia Nebbia 10 9 93 1019 2 N 0
Ieri h: 23:43 nebbia Nebbia 9 9 100 1019 2 N 0
Ieri h: 23:26 nebbia Nebbia 10 9 93 1019 2 N 0
Ieri h: 23:22 foschia Foschia 9 9 100 1019 5 N 0
Ieri h: 23:20 foschia Foschia 9 9 100 1019 2 N 0
Ieri h: 22:52 coperto Coperto 11 9 87 1019 10 N 0
Ieri h: 22:41 molto_nuvoloso Molto Nuvoloso 9 8 93 1019 10 N 0
Ieri h: 22:31 nuvoloso Nuvoloso 10 9 93 1019 10 N 0
Ieri h: 21:52 sereno Sereno 12 10 87 1019 10 N 0
Ieri h: 20:52 sereno Sereno 12 11 93 1019 10 N 0
Ieri h: 19:52 sereno Sereno 15 13 87 1018 14 N 0
Ieri h: 18:52 sereno Sereno 19 13 68 1018 10 N 0
Ieri h: 17:52 sereno Sereno 22 12 53 1019 10 N 0
Ieri h: 16:52 sereno Sereno 23 11 46 1018 10 NO 11.1
Ieri h: 15:52 sereno Sereno 23 8 38 1019 10 N 9.3
Ieri h: 14:52 sereno Sereno 23 9 40 1019 10 N 7.4
Ieri h: 13:52 sereno Sereno 22 11 49 1019 10 S/SE 7.4
Ieri h: 12:52 sereno Sereno 21 10 49 1020 10 N 0
Ieri h: 11:52 sereno Sereno 20 9 49 1021 10 N 0
Ieri h: 10:52 sereno Sereno 18 9 55 1021 10 O/NO 7.4
Ieri h: 10:04 nuvoloso Nuvoloso 16 12 77 1022 10 N 0
Ieri h: 09:52 molto_nuvoloso Molto Nuvoloso 15 12 82 1022 10 N 0
Ieri h: 09:08 coperto Coperto 13 11 87 1022 10 N 5.5
Ieri h: 08:52 coperto Coperto 13 11 87 1021 10 N 0
Ieri h: 07:52 foschia Foschia 11 10 93 1021 5 N 0
Ieri h: 07:22 foschia Foschia 11 10 93 1021 5 N 0
Ieri h: 07:06 foschia Foschia 10 9 93 1021 2 N 0
Ieri h: 06:52 foschia Foschia 10 9 93 1021 8 N 0
Ieri h: 05:52 foschia Foschia 10 10 100 1020 10 N 0
Ieri h: 05:44 foschia Foschia 10 9 93 1020 5 N 0
Ieri h: 05:40 foschia Foschia 10 9 93 1020 2 N 0
Ieri h: 05:14 nebbia Nebbia 9 9 100 1020 2 N 0
Ieri h: 04:52 nebbia Nebbia 9 9 100 1020 2 N 5.5
Ieri h: 03:52 nebbia Nebbia 9 8 93 1019 2 N 0
Ieri h: 03:33 nebbia Nebbia 8 8 100 1019 2 N 0
Ieri h: 02:59 nebbia Nebbia 7 7 100 1019 2 N 0
Ieri h: 02:52 nebbia Nebbia 7 7 100 1019 2 N 0
Ieri h: 02:48 foschia Foschia 8 8 100 1019 2 N 0
Ieri h: 02:46 foschia Foschia 8 8 100 1019 5 N 0
Ieri h: 02:12 nuvoloso Nuvoloso 9 8 93 1019 10 N 5.5
Ieri h: 01:52 molto_nuvoloso Molto Nuvoloso 9 8 93 1019 13 N 0
Ieri h: 01:49 molto_nuvoloso Molto Nuvoloso 9 8 93 1019 11 N 5.5
Ieri h: 01:39 foschia Foschia 9 9 100 1019 6 N 0
Ieri h: 01:37 foschia Foschia 9 9 100 1019 2 N 0
Ieri h: 01:35 foschia Foschia 9 8 93 1019 5 N 0